Weather reports worldwide

Advertisment
Gela, Italy (16453): temperature & dewpoint: 17.07.2019 22:00:00 - 23.07.2019 22:00:00 (CEST)Gela, Italy (16453): wind speed: 17.07.2019 22:00:00 - 23.07.2019 22:00:00 (CEST)Gela, Italy (16453): wind direction: 17.07.2019 22:00:00 - 23.07.2019 22:00:00 (CEST)Gela, Italy (16453): reduced air pressure: 17.07.2019 22:00:00 - 23.07.2019 22:00:00 (CEST)Gela, Italy (16453): visibility: 17.07.2019 22:00:00 - 23.07.2019 22:00:00 (CEST)Gela, Italy (16453): sunshine duration: 17.07.2019 22:00:00 - 23.07.2019 22:00:00 (CEST)
Date & Time tt [°C] td [°C] ff [km/h] ff [kn] dd ppp [hPa] vv [km] sd [min]
23.07.2019 22:00:00 - - - - - - - -
23.07.2019 21:00:00 - - - - - - - -
23.07.2019 20:00:00 27,0 21,7 8 4 SSW 1015,1 10 42
23.07.2019 19:00:00 27,0 21,0 13 7 - - 10 -
23.07.2019 18:00:00 28,0 21,0 11 6 SSW - 10 -
23.07.2019 17:00:00 27,8 21,3 11 6 N 1016,1 10 48
23.07.2019 16:00:00 28,0 21,0 9 5 SW - 10 -
23.07.2019 15:00:00 28,0 20,0 11 6 - - 10 -
23.07.2019 14:00:00 28,0 21,5 11 6 N 1016,0 10 60
23.07.2019 13:00:00 28,0 21,0 13 7 WSW - 10 -
23.07.2019 12:00:00 28,0 19,0 13 7 WSW - 10 -
23.07.2019 11:00:00 28,0 19,5 9 5 SW 1016,4 10 60
23.07.2019 10:00:00 28,0 16,0 8 4 SW - 10 -
23.07.2019 09:00:00 27,0 13,0 4 2 - - 10 -
23.07.2019 08:00:00 26,4 14,5 4 2 N 1016,7 10 -
23.07.2019 07:00:00 - - - - - - - -
23.07.2019 06:00:00 - - - - - - - -
23.07.2019 05:00:00 - - - - - - - -
23.07.2019 04:00:00 - - - - - - - -
23.07.2019 03:00:00 - - - - - - - -
23.07.2019 02:00:00 - - - - - - - -
23.07.2019 01:00:00 - - - - - - - -
23.07.2019 00:00:00 - - - - - - - -
22.07.2019 23:00:00 - - - - - - - -
22.07.2019 22:00:00 - - - - - - - -
22.07.2019 21:00:00 - - - - - - - -
22.07.2019 20:00:00 26,2 22,3 9 5 SSW 1017,5 2,0 18
22.07.2019 19:00:00 27,0 22,0 13 7 SSW - 4,0 -
22.07.2019 18:00:00 27,0 22,0 13 7 SSW - 3,0 -
22.07.2019 17:00:00 27,2 22,6 18 10 SSW 1018,0 2,0 60
22.07.2019 16:00:00 28,0 23,0 18 10 SW - 3,0 -
22.07.2019 15:00:00 28,0 23,0 16 9 - - 3,0 -
22.07.2019 14:00:00 27,8 23,0 22 12 W 1018,2 2,0 60
22.07.2019 13:00:00 27,0 22,0 18 10 W - 3,0 -
22.07.2019 12:00:00 27,0 21,0 13 7 SW - 5 -
22.07.2019 11:00:00 26,4 19,3 9 5 SW 1019,0 4,0 60
22.07.2019 10:00:00 26,0 17,0 11 6 SW - 5 -
22.07.2019 09:00:00 26,0 17,0 4 2 - - 6 -
22.07.2019 08:00:00 25,0 15,6 4 2 N 1018,8 4,0 60
22.07.2019 07:00:00 - - - - - - - -
22.07.2019 06:00:00 - - - - - - - -
22.07.2019 05:00:00 - - - - - - - -
22.07.2019 04:00:00 - - - - - - - -
22.07.2019 03:00:00 - - - - - - - -
22.07.2019 02:00:00 - - - - - - - -
22.07.2019 01:00:00 - - - - - - - -
22.07.2019 00:00:00 - - - - - - - -
21.07.2019 23:00:00 - - - - - - - -
21.07.2019 22:00:00 - - - - - - - -
21.07.2019 21:00:00 - - - - - - - -
21.07.2019 20:00:00 25,2 20,9 15 8 SW 1018,8 10 18
21.07.2019 19:00:00 26,0 21,0 16 9 SW - 10 -
21.07.2019 18:00:00 26,0 21,0 13 7 - - 10 -
21.07.2019 17:00:00 26,0 20,3 11 6 - 1018,7 10 60
21.07.2019 16:00:00 26,0 19,0 15 8 WSW - 10 -
21.07.2019 15:00:00 26,0 19,0 11 6 SW - 10 -
21.07.2019 14:00:00 26,0 19,6 13 7 SW 1019,2 10 60
21.07.2019 13:00:00 26,0 19,0 13 7 - - 10 -
21.07.2019 12:00:00 26,0 20,0 13 7 - - 10 -
21.07.2019 11:00:00 25,2 19,1 16 9 SW 1019,2 10 60
21.07.2019 10:00:00 26,0 17,0 5 3 - - 10 -
21.07.2019 09:00:00 26,0 16,0 4 2 - - 10 -
21.07.2019 08:00:00 24,8 15,7 5 3 E 1018,9 10 60
21.07.2019 07:00:00 - - - - - - - -
21.07.2019 06:00:00 - - - - - - - -
21.07.2019 05:00:00 - - - - - - - -
21.07.2019 04:00:00 - - - - - - - -
21.07.2019 03:00:00 - - - - - - - -
21.07.2019 02:00:00 - - - - - - - -
21.07.2019 01:00:00 - - - - - - - -
21.07.2019 00:00:00 - - - - - - - -
20.07.2019 23:00:00 - - - - - - - -
20.07.2019 22:00:00 - - - - - - - -
20.07.2019 21:00:00 - - - - - - - -
20.07.2019 20:00:00 25,0 20,3 11 6 W 1018,2 10 48
20.07.2019 19:00:00 26,0 20,0 8 4 - - 10 -
20.07.2019 18:00:00 26,0 20,0 8 4 - - 10 -
20.07.2019 17:00:00 25,2 19,6 13 7 SSW 1018,1 10 60
20.07.2019 16:00:00 26,0 20,0 13 7 SSW - 10 -
20.07.2019 15:00:00 26,0 20,0 16 9 SW - 10 -
20.07.2019 14:00:00 25,6 20,2 15 8 WSW 1018,0 4,0 60
20.07.2019 13:00:00 25,0 19,0 13 7 - - 10 -
20.07.2019 12:00:00 25,0 20,0 11 6 - - 10 -
20.07.2019 11:00:00 25,2 19,4 9 5 N 1017,9 4,0 60
20.07.2019 10:00:00 25,0 19,0 8 4 - - 7 -
20.07.2019 09:00:00 25,0 20,0 5 3 - - 7 -
20.07.2019 08:00:00 24,0 18,9 4 2 - 1017,2 4,0 60
20.07.2019 07:00:00 - - - - - - - -
20.07.2019 06:00:00 - - - - - - - -
20.07.2019 05:00:00 - - - - - - - -
20.07.2019 04:00:00 - - - - - - - -
20.07.2019 03:00:00 - - - - - - - -
20.07.2019 02:00:00 - - - - - - - -
20.07.2019 01:00:00 - - - - - - - -
20.07.2019 00:00:00 - - - - - - - -
19.07.2019 23:00:00 - - - - - - - -
19.07.2019 22:00:00 - - - - - - - -
19.07.2019 21:00:00 - - - - - - - -
19.07.2019 20:00:00 24,6 21,1 15 8 SW 1015,1 10 24
19.07.2019 19:00:00 25,0 21,0 21 11 SSW - 10 -
19.07.2019 18:00:00 25,0 21,0 18 10 SW - 10 -
19.07.2019 17:00:00 26,2 20,8 18 10 W 1014,4 20 60
19.07.2019 16:00:00 26,0 20,0 22 12 W - 10 -
19.07.2019 15:00:00 26,0 19,0 15 8 WSW - 10 -
19.07.2019 14:00:00 26,0 19,4 13 7 SW 1015,0 20 60
19.07.2019 13:00:00 26,0 18,0 13 7 - - 10 -
19.07.2019 12:00:00 25,0 18,0 16 9 SSW - 10 -
19.07.2019 11:00:00 25,4 16,5 15 8 SSW 1015,2 20 60
19.07.2019 10:00:00 26,0 15,0 8 4 - - 10 -
19.07.2019 09:00:00 25,0 15,0 5 3 - - 10 -
19.07.2019 08:00:00 24,2 14,9 2 1 N 1014,6 20 60
19.07.2019 07:00:00 - - - - - - - -
19.07.2019 06:00:00 - - - - - - - -
19.07.2019 05:00:00 - - - - - - - -
19.07.2019 04:00:00 - - - - - - - -
19.07.2019 03:00:00 - - - - - - - -
19.07.2019 02:00:00 - - - - - - - -
19.07.2019 01:00:00 - - - - - - - -
19.07.2019 00:00:00 - - - - - - - -
18.07.2019 23:00:00 - - - - - - - -
18.07.2019 22:00:00 - - - - - - - -
18.07.2019 21:00:00 - - - - - - - -
18.07.2019 20:00:00 25,0 19,6 21 11 W 1012,3 20 42
18.07.2019 19:00:00 25,0 21,0 15 8 SW - 10 -
18.07.2019 18:00:00 25,0 20,0 15 8 - - 10 -
18.07.2019 17:00:00 25,8 19,4 15 8 - 1011,9 20 60
18.07.2019 16:00:00 26,0 20,0 18 10 W - 10 -
18.07.2019 15:00:00 26,0 20,0 13 7 - - 10 -
18.07.2019 14:00:00 25,6 19,3 15 8 SW 1012,2 10 60
18.07.2019 13:00:00 25,0 19,0 13 7 - - 10 -
18.07.2019 12:00:00 26,0 18,0 16 9 SSW - 10 -
18.07.2019 11:00:00 25,6 16,5 11 6 SSW 1012,3 10 60
18.07.2019 10:00:00 26,0 17,0 9 5 - - 10 -
18.07.2019 09:00:00 25,0 17,0 5 3 - - 10 -
18.07.2019 08:00:00 24,6 17,1 5 3 ENE 1011,5 10 60
18.07.2019 07:00:00 - - - - - - - -
18.07.2019 06:00:00 - - - - - - - -
18.07.2019 05:00:00 - - - - - - - -
18.07.2019 04:00:00 - - - - - - - -
18.07.2019 03:00:00 - - - - - - - -
18.07.2019 02:00:00 - - - - - - - -
18.07.2019 01:00:00 - - - - - - - -
18.07.2019 00:00:00 - - - - - - - -
17.07.2019 23:00:00 - - - - - - - -
17.07.2019 22:00:00 - - - - - - - -

tt = temperature
td = dewpoint
ff = wind speed
dd = wind direction
ppp = reduced air pressure
vv = visibility
sd = sunshine duration

Next stations